QPF
0.04 0.04 0.04 0.04 0.05 0.05 0.05 0.06 0.07 0.06 0.04 0.02 0.02 0.03 0.07 0.09 0.13 0.18 0.20 0.12 0.05 0.02 0.01 0.00 0.00 0.00 0.00 0.00 0.00 0.00 0.00 0.01 0.03 0.05 0.08 0.10 0.12 0.13
0.04 0.04 0.04 0.04 0.05 0.04 0.05 0.05 0.07 0.08 0.07 0.03 0.01 0.03 0.05 0.07 0.13 0.20 0.20 0.13 0.06 0.03 0.01 0.01 0.00 0.00 0.00 0.00 0.00 0.00 0.01 0.03 0.06 0.10 0.13 0.16 0.19 0.19
0.03 0.04 0.04 0.04 0.04 0.04 0.04 0.05 0.06 0.09 0.09 0.04 0.02 0.02 0.04 0.07 0.13 0.19 0.20 0.13 0.09 0.07 0.04 0.02 0.01 0.01 0.01 0.01 0.02 0.03 0.04 0.07 0.12 0.17 0.22 0.27 0.27 0.24
0.03 0.04 0.03 0.03 0.03 0.04 0.04 0.05 0.06 0.07 0.10 0.07 0.03 0.03 0.05 0.10 0.17 0.21 0.22 0.17 0.13 0.14 0.10 0.08 0.06 0.07 0.09 0.08 0.08 0.09 0.12 0.16 0.21 0.26 0.29 0.31 0.30 0.26
0.03 0.04 0.04 0.04 0.04 0.04 0.05 0.05 0.06 0.07 0.08 0.08 0.04 0.04 0.07 0.13 0.20 0.21 0.19 0.17 0.15 0.15 0.13 0.12 0.13 0.23 0.35 0.34 0.27 0.21 0.23 0.27 0.29 0.33 0.35 0.33 0.29 0.21
0.03 0.04 0.05 0.05 0.06 0.06 0.05 0.05 0.06 0.07 0.08 0.08 0.07 0.07 0.09 0.15 0.17 0.18 0.17 0.15 0.14 0.11 0.11 0.15 0.29 0.47 0.70 0.82 0.69 0.47 0.37 0.34 0.31 0.31 0.29 0.25 0.21 0.15
0.03 0.05 0.06 0.06 0.06 0.05 0.03 0.04 0.06 0.08 0.08 0.08 0.08 0.09 0.10 0.13 0.15 0.13 0.13 0.13 0.09 0.06 0.07 0.18 0.48 0.70 0.85 0.99 1.04 0.82 0.65 0.53 0.44 0.38 0.31 0.23 0.17 0.13
0.05 0.06 0.05 0.05 0.03 0.02 0.02 0.04 0.06 0.07 0.07 0.07 0.07 0.07 0.07 0.08 0.09 0.11 0.11 0.09 0.06 0.03 0.04 0.17 0.46 0.78 0.95 1.01 1.07 0.93 0.79 0.67 0.56 0.48 0.39 0.30 0.21 0.15
0.07 0.07 0.05 0.02 0.01 0.01 0.02 0.04 0.06 0.08 0.07 0.06 0.06 0.06 0.06 0.05 0.07 0.10 0.09 0.06 0.04 0.02 0.03 0.12 0.33 0.62 0.81 0.87 0.86 0.76 0.67 0.58 0.51 0.43 0.35 0.27 0.19 0.13
0.05 0.06 0.04 0.01 0.01 0.02 0.04 0.05 0.05 0.06 0.06 0.05 0.06 0.07 0.06 0.05 0.06 0.06 0.04 0.04 0.03 0.01 0.02 0.08 0.21 0.40 0.54 0.58 0.56 0.49 0.43 0.37 0.32 0.26 0.20 0.15 0.10 0.06
0.02 0.03 0.02 0.00 0.02 0.05 0.07 0.09 0.09 0.08 0.06 0.06 0.10 0.13 0.11 0.09 0.07 0.05 0.04 0.03 0.02 0.01 0.02 0.06 0.13 0.23 0.30 0.31 0.28 0.23 0.19 0.16 0.13 0.10 0.07 0.05 0.03 0.01
0.01 0.02 0.01 0.01 0.03 0.06 0.10 0.12 0.13 0.13 0.09 0.07 0.12 0.16 0.13 0.13 0.14 0.12 0.08 0.05 0.02 0.02 0.03 0.06 0.10 0.12 0.16 0.14 0.11 0.08 0.06 0.05 0.04 0.02 0.01 0.01 0.00 0.00
0.01 0.01 0.01 0.03 0.04 0.07 0.11 0.13 0.17 0.18 0.14 0.12 0.15 0.17 0.18 0.17 0.15 0.14 0.11 0.08 0.03 0.02 0.04 0.05 0.08 0.09 0.08 0.07 0.05 0.03 0.02 0.01 0.01 0.00 0.00 0.00 0.00 0.00
0.01 0.02 0.03 0.04 0.06 0.10 0.12 0.16 0.21 0.23 0.20 0.18 0.14 0.13 0.13 0.13 0.13 0.13 0.11 0.06 0.03 0.02 0.03 0.04 0.05 0.06 0.04 0.03 0.03 0.02 0.01 0.01 0.00 0.00 0.00 0.00 0.00 0.00
0.02 0.05 0.04 0.04 0.09 0.14 0.16 0.20 0.22 0.23 0.24 0.20 0.13 0.10 0.08 0.08 0.09 0.11 0.09 0.04 0.03 0.03 0.03 0.02 0.02 0.02 0.01 0.01 0.01 0.02 0.01 0.01 0.00 0.00 0.00 0.00 0.00 0.00
0.03 0.05 0.04 0.05 0.10 0.17 0.20 0.22 0.23 0.24 0.25 0.20 0.14 0.10 0.08 0.08 0.09 0.07 0.04 0.03 0.03 0.04 0.03 0.02 0.01 0.00 0.00 0.01 0.01 0.01 0.01 0.01 0.01 0.01 0.01 0.01 0.01 0.01
0.03 0.03 0.02 0.03 0.08 0.14 0.19 0.21 0.22 0.23 0.26 0.21 0.15 0.11 0.09 0.08 0.08 0.06 0.03 0.03 0.03 0.03 0.03 0.02 0.01 0.01 0.00 0.00 0.01 0.01 0.01 0.01 0.01 0.01 0.01 0.01 0.00 0.00
0.02 0.02 0.02 0.04 0.08 0.12 0.15 0.18 0.19 0.21 0.22 0.19 0.14 0.11 0.08 0.06 0.06 0.04 0.03 0.02 0.02 0.01 0.01 0.01 0.01 0.01 0.01 0.01 0.01 0.01 0.01 0.01 0.01 0.01 0.00 0.00 0.00 0.00
0.01 0.02 0.02 0.05 0.08 0.10 0.11 0.12 0.13 0.15 0.15 0.14 0.12 0.10 0.07 0.05 0.04 0.03 0.02 0.01 0.01 0.01 0.01 0.00 0.00 0.00 0.00 0.01 0.01 0.00 0.01 0.01 0.01 0.01 0.00 0.00 0.00 0.00
0.01 0.02 0.03 0.05 0.07 0.08 0.09 0.09 0.09 0.10 0.10 0.11 0.11 0.09 0.06 0.04 0.02 0.02 0.01 0.01 0.01 0.00 0.01 0.01 0.00 0.00 0.00 0.00 0.01 0.00 0.00 0.01 0.01 0.00 0.00 0.00 0.00 0.00
0.01 0.02 0.03 0.05 0.06 0.07 0.08 0.07 0.06 0.06 0.07 0.08 0.09 0.08 0.06 0.03 0.03 0.02 0.02 0.01 0.01 0.01 0.01 0.01 0.00 0.00 0.00 0.00 0.01 0.01 0.00 0.00 0.00 0.00 0.00 0.00 0.00 0.00
0.02 0.02 0.04 0.05 0.06 0.07 0.07 0.07 0.05 0.04 0.05 0.05 0.06 0.06 0.05 0.04 0.03 0.02 0.02 0.02 0.01 0.01 0.00 0.00 0.00 0.00 0.00 0.00 0.00 0.00 0.00 0.00 0.00 0.00 0.00 0.00 0.00 0.00
0.02 0.02 0.03 0.05 0.06 0.06 0.06 0.06 0.06 0.06 0.05 0.04 0.04 0.04 0.04 0.03 0.03 0.03 0.02 0.01 0.00 0.00 0.00 0.00 0.00 0.00 0.00 0.00 0.00 0.00 0.00 0.00 0.00 0.00 0.00 0.00 0.00 0.00
MSLP
1015.18 1014.86 1014.55 1014.23 1013.91 1013.59 1013.26 1012.91 1012.53 1012.10 1011.64 1011.15 1010.66 1010.19 1009.77 1009.43 1009.19 1009.06 1009.01 1009.02 1009.05 1009.04 1008.94 1008.73 1008.39 1007.93 1007.38 1006.80 1006.25 1005.79 1005.47 1005.31 1005.34 1005.52 1005.83 1006.24 1006.72 1007.23
1014.76 1014.42 1014.10 1013.79 1013.51 1013.23 1012.95 1012.65 1012.30 1011.91 1011.48 1011.02 1010.54 1010.10 1009.72 1009.43 1009.24 1009.15 1009.14 1009.15 1009.13 1009.01 1008.76 1008.33 1007.73 1006.99 1006.16 1005.33 1004.57 1003.98 1003.61 1003.49 1003.64 1004.02 1004.58 1005.27 1006.03 1006.82
1014.28 1013.89 1013.54 1013.22 1012.93 1012.67 1012.41 1012.14 1011.82 1011.46 1011.06 1010.63 1010.20 1009.82 1009.50 1009.28 1009.18 1009.16 1009.19 1009.21 1009.15 1008.95 1008.54 1007.91 1007.07 1006.06 1004.97 1003.89 1002.94 1002.22 1001.81 1001.73 1002.00 1002.58 1003.39 1004.37 1005.42 1006.49
1013.82 1013.36 1012.94 1012.57 1012.26 1011.98 1011.72 1011.45 1011.14 1010.80 1010.43 1010.04 1009.66 1009.34 1009.12 1009.00 1008.99 1009.07 1009.17 1009.24 1009.18 1008.92 1008.41 1007.63 1006.59 1005.37 1004.06 1002.78 1001.68 1000.86 1000.42 1000.39 1000.77 1001.52 1002.55 1003.78 1005.09 1006.41
1013.44 1012.88 1012.38 1011.95 1011.58 1011.26 1010.96 1010.66 1010.35 1010.00 1009.64 1009.29 1008.97 1008.73 1008.61 1008.61 1008.72 1008.92 1009.13 1009.28 1009.27 1009.02 1008.47 1007.62 1006.48 1005.13 1003.69 1002.30 1001.10 1000.23 999.77 999.78 1000.25 1001.12 1002.32 1003.73 1005.23 1006.72
1013.16 1012.52 1011.93 1011.41 1010.96 1010.57 1010.21 1009.86 1009.51 1009.15 1008.79 1008.46 1008.20 1008.05 1008.03 1008.15 1008.41 1008.74 1009.10 1009.37 1009.46 1009.28 1008.79 1007.96 1006.83 1005.48 1004.02 1002.61 1001.40 1000.52 1000.08 1000.12 1000.64 1001.58 1002.86 1004.36 1005.95 1007.53
1012.99 1012.26 1011.58 1010.98 1010.44 1009.96 1009.52 1009.11 1008.70 1008.31 1007.94 1007.64 1007.43 1007.36 1007.44 1007.70 1008.10 1008.59 1009.10 1009.53 1009.77 1009.74 1009.38 1008.68 1007.66 1006.42 1005.06 1003.73 1002.59 1001.77 1001.37 1001.43 1001.96 1002.91 1004.18 1005.68 1007.25 1008.82
1012.90 1012.09 1011.34 1010.65 1010.02 1009.45 1008.93 1008.44 1007.97 1007.54 1007.17 1006.89 1006.73 1006.73 1006.93 1007.30 1007.84 1008.49 1009.16 1009.76 1010.18 1010.34 1010.18 1009.69 1008.88 1007.83 1006.67 1005.51 1004.52 1003.81 1003.47 1003.56 1004.08 1004.97 1006.16 1007.55 1009.02 1010.48
1012.83 1011.98 1011.16 1010.39 1009.69 1009.04 1008.43 1007.87 1007.36 1006.91 1006.53 1006.28 1006.17 1006.25 1006.54 1007.03 1007.70 1008.47 1009.29 1010.06 1010.66 1011.02 1011.09 1010.84 1010.29 1009.51 1008.61 1007.69 1006.89 1006.33 1006.08 1006.19 1006.66 1007.46 1008.52 1009.74 1011.03 1012.32
1012.76 1011.88 1011.01 1010.19 1009.42 1008.70 1008.04 1007.44 1006.90 1006.44 1006.08 1005.87 1005.82 1005.98 1006.36 1006.94 1007.70 1008.58 1009.51 1010.40 1011.15 1011.69 1011.97 1011.96 1011.68 1011.19 1010.57 1009.91 1009.34 1008.95 1008.80 1008.93 1009.35 1010.04 1010.92 1011.95 1013.03 1014.10
1012.70 1011.79 1010.90 1010.04 1009.22 1008.46 1007.77 1007.14 1006.60 1006.17 1005.86 1005.71 1005.74 1005.98 1006.43 1007.08 1007.90 1008.83 1009.82 1010.77 1011.61 1012.27 1012.70 1012.90 1012.86 1012.62 1012.27 1011.88 1011.53 1011.30 1011.26 1011.42 1011.79 1012.36 1013.09 1013.91 1014.78 1015.66
1012.66 1011.74 1010.82 1009.94 1009.10 1008.32 1007.62 1007.01 1006.50 1006.13 1005.89 1005.82 1005.94 1006.27 1006.78 1007.47 1008.31 1009.25 1010.22 1011.17 1012.03 1012.73 1013.25 1013.57 1013.70 1013.68 1013.55 1013.38 1013.23 1013.16 1013.22 1013.41 1013.76 1014.24 1014.82 1015.48 1016.17 1016.87
1012.69 1011.76 1010.83 1009.93 1009.08 1008.30 1007.63 1007.06 1006.62 1006.32 1006.19 1006.22 1006.44 1006.83 1007.40 1008.11 1008.93 1009.82 1010.73 1011.61 1012.41 1013.08 1013.61 1013.98 1014.21 1014.33 1014.37 1014.37 1014.38 1014.45 1014.60 1014.84 1015.18 1015.60 1016.08 1016.62 1017.19 1017.77
1012.82 1011.88 1010.94 1010.04 1009.20 1008.45 1007.81 1007.31 1006.96 1006.76 1006.73 1006.88 1007.18 1007.65 1008.24 1008.95 1009.72 1010.53 1011.33 1012.09 1012.77 1013.35 1013.82 1014.18 1014.45 1014.64 1014.78 1014.92 1015.06 1015.25 1015.48 1015.77 1016.12 1016.52 1016.96 1017.43 1017.92 1018.43
1013.05 1012.11 1011.18 1010.29 1009.47 1008.77 1008.19 1007.77 1007.51 1007.42 1007.50 1007.74 1008.12 1008.64 1009.24 1009.92 1010.62 1011.32 1011.98 1012.59 1013.13 1013.59 1013.96 1014.27 1014.53 1014.75 1014.96 1015.18 1015.43 1015.71 1016.03 1016.38 1016.77 1017.18 1017.61 1018.06 1018.52 1019.01
1013.38 1012.45 1011.54 1010.68 1009.90 1009.26 1008.75 1008.41 1008.24 1008.25 1008.41 1008.73 1009.17 1009.71 1010.30 1010.92 1011.54 1012.12 1012.64 1013.10 1013.49 1013.82 1014.10 1014.34 1014.57 1014.81 1015.06 1015.35 1015.68 1016.04 1016.44 1016.86 1017.30 1017.75 1018.20 1018.66 1019.13 1019.61
1013.77 1012.87 1011.99 1011.19 1010.48 1009.90 1009.47 1009.21 1009.12 1009.20 1009.42 1009.78 1010.24 1010.77 1011.32 1011.87 1012.39 1012.85 1013.25 1013.58 1013.85 1014.08 1014.28 1014.47 1014.68 1014.93 1015.23 1015.58 1015.98 1016.42 1016.89 1017.38 1017.87 1018.36 1018.85 1019.34 1019.82 1020.31
1014.18 1013.33 1012.52 1011.79 1011.16 1010.66 1010.32 1010.13 1010.09 1010.21 1010.46 1010.82 1011.26 1011.74 1012.22 1012.69 1013.11 1013.47 1013.76 1014.00 1014.19 1014.35 1014.51 1014.69 1014.92 1015.20 1015.54 1015.95 1016.41 1016.91 1017.45 1017.99 1018.54 1019.07 1019.59 1020.10 1020.60 1021.10
1014.57 1013.80 1013.08 1012.45 1011.91 1011.50 1011.23 1011.10 1011.10 1011.23 1011.47 1011.79 1012.17 1012.57 1012.97 1013.34 1013.66 1013.94 1014.16 1014.33 1014.49 1014.63 1014.80 1015.01 1015.27 1015.60 1016.00 1016.46 1016.98 1017.53 1018.11 1018.69 1019.27 1019.83 1020.37 1020.89 1021.40 1021.90
1014.95 1014.27 1013.66 1013.13 1012.70 1012.38 1012.17 1012.08 1012.10 1012.22 1012.41 1012.67 1012.96 1013.26 1013.56 1013.83 1014.07 1014.27 1014.45 1014.60 1014.76 1014.93 1015.13 1015.39 1015.72 1016.10 1016.56 1017.07 1017.63 1018.21 1018.81 1019.40 1019.99 1020.55 1021.09 1021.61 1022.11 1022.59
1015.34 1014.76 1014.25 1013.83 1013.49 1013.25 1013.10 1013.04 1013.06 1013.14 1013.28 1013.45 1013.64 1013.83 1014.03 1014.21 1014.37 1014.53 1014.68 1014.84 1015.02 1015.24 1015.51 1015.83 1016.22 1016.66 1017.16 1017.71 1018.28 1018.87 1019.46 1020.04 1020.60 1021.15 1021.67 1022.17 1022.65 1023.11
1015.76 1015.27 1014.86 1014.52 1014.27 1014.10 1013.99 1013.94 1013.94 1013.98 1014.04 1014.13 1014.22 1014.32 1014.42 1014.52 1014.63 1014.76 1014.91 1015.09 1015.32 1015.59 1015.93 1016.32 1016.76 1017.24 1017.77 1018.31 1018.87 1019.44 1019.99 1020.53 1021.06 1021.56 1022.05 1022.52 1022.98 1023.41
1016.25 1015.83 1015.48 1015.22 1015.02 1014.89 1014.80 1014.75 1014.73 1014.72 1014.71 1014.72 1014.73 1014.75 1014.78 1014.83 1014.91 1015.02 1015.19 1015.41 1015.68 1016.01 1016.40 1016.84 1017.31 1017.82 1018.34 1018.86 1019.39 1019.90 1020.40 1020.88 1021.35 1021.81 1022.26 1022.70 1023.13 1023.54
Thickness
5483 5481 5479 5479 5477 5476 5474 5472 5470 5475 5481 5483 5484 5485 5484 5484 5484 5484 5485 5487 5490 5491 5492 5494 5497 5502 5509 5518 5529 5541 5555 5570 5584 5596 5608 5618 5627 5634
5476 5475 5474 5472 5471 5470 5469 5468 5466 5466 5472 5476 5476 5477 5476 5476 5477 5477 5477 5479 5480 5481 5483 5485 5489 5495 5503 5513 5525 5537 5549 5563 5576 5589 5600 5611 5619 5625
5469 5469 5468 5467 5466 5466 5465 5464 5463 5462 5466 5471 5471 5472 5471 5471 5472 5473 5473 5473 5474 5475 5477 5480 5485 5492 5502 5514 5528 5540 5550 5559 5570 5582 5593 5604 5611 5615
5463 5463 5464 5464 5464 5463 5462 5462 5462 5462 5462 5466 5468 5468 5468 5469 5469 5470 5470 5469 5469 5470 5472 5476 5481 5490 5503 5520 5538 5550 5555 5560 5567 5576 5588 5598 5603 5602
5458 5459 5461 5462 5462 5462 5462 5462 5462 5463 5462 5463 5466 5466 5467 5468 5467 5466 5465 5464 5465 5466 5468 5471 5476 5486 5502 5525 5547 5558 5559 5561 5565 5573 5580 5585 5588 5589
5453 5456 5459 5461 5462 5462 5462 5463 5463 5463 5463 5463 5465 5466 5466 5467 5466 5464 5461 5459 5459 5460 5461 5464 5469 5479 5495 5518 5541 5552 5555 5556 5559 5564 5569 5572 5574 5575
5450 5454 5457 5460 5461 5460 5461 5462 5462 5463 5464 5465 5466 5467 5467 5467 5465 5462 5459 5456 5455 5455 5455 5456 5459 5467 5480 5500 5522 5536 5543 5546 5549 5552 5555 5558 5560 5560
5445 5449 5453 5457 5457 5458 5459 5461 5463 5466 5468 5468 5469 5470 5471 5469 5464 5462 5459 5459 5456 5450 5450 5447 5450 5456 5465 5480 5497 5515 5524 5530 5533 5536 5539 5541 5542 5543
5436 5442 5447 5451 5452 5454 5459 5464 5469 5473 5474 5474 5473 5474 5473 5470 5465 5462 5459 5455 5450 5446 5447 5442 5442 5447 5454 5465 5480 5493 5503 5510 5515 5519 5522 5524 5525 5526
5427 5434 5439 5443 5447 5449 5457 5466 5473 5479 5482 5480 5478 5477 5474 5470 5467 5461 5456 5451 5447 5443 5443 5438 5437 5441 5448 5457 5466 5477 5486 5494 5499 5503 5508 5510 5511 5511
5420 5427 5432 5436 5441 5446 5456 5465 5474 5481 5483 5482 5479 5476 5472 5468 5465 5460 5455 5453 5446 5439 5438 5436 5435 5439 5444 5450 5457 5466 5475 5482 5488 5493 5496 5497 5499 5499
5413 5420 5426 5430 5437 5444 5453 5463 5471 5477 5480 5479 5475 5470 5466 5462 5460 5460 5458 5455 5449 5440 5435 5436 5438 5443 5444 5445 5452 5459 5467 5472 5478 5482 5485 5487 5489 5489
5407 5412 5419 5425 5434 5442 5450 5459 5467 5473 5476 5475 5470 5466 5461 5458 5455 5454 5454 5454 5451 5444 5438 5441 5444 5447 5450 5448 5452 5458 5464 5468 5472 5474 5476 5478 5478 5479
5400 5405 5412 5420 5430 5439 5448 5456 5464 5470 5471 5469 5466 5462 5458 5455 5452 5451 5450 5449 5447 5444 5442 5443 5445 5447 5452 5454 5456 5458 5462 5465 5468 5469 5470 5470 5470 5470
5394 5400 5408 5417 5427 5435 5443 5451 5459 5464 5465 5464 5461 5457 5454 5451 5450 5448 5446 5445 5443 5442 5442 5443 5447 5450 5454 5457 5458 5458 5460 5461 5462 5464 5465 5465 5464 5465
5391 5398 5406 5414 5422 5430 5437 5445 5451 5454 5457 5457 5455 5452 5450 5448 5447 5445 5444 5444 5443 5441 5442 5445 5448 5451 5454 5456 5458 5457 5458 5459 5459 5460 5461 5461 5460 5460
5385 5395 5402 5409 5417 5424 5431 5437 5442 5446 5448 5449 5449 5448 5447 5446 5444 5444 5444 5445 5444 5443 5443 5445 5448 5450 5452 5455 5455 5454 5454 5454 5455 5455 5456 5454 5453 5453
5383 5390 5396 5402 5410 5417 5424 5429 5434 5438 5440 5442 5443 5444 5444 5444 5443 5443 5444 5444 5444 5444 5445 5445 5447 5449 5449 5449 5449 5450 5450 5451 5451 5451 5450 5449 5446 5446
5379 5384 5390 5396 5403 5411 5417 5422 5426 5430 5433 5436 5438 5439 5440 5441 5441 5441 5442 5444 5445 5446 5446 5447 5448 5449 5449 5447 5443 5445 5447 5448 5449 5449 5448 5446 5444 5443
5374 5379 5385 5391 5398 5405 5411 5416 5420 5424 5427 5430 5432 5434 5436 5437 5438 5439 5441 5444 5446 5447 5447 5448 5448 5447 5446 5445 5442 5440 5443 5446 5446 5445 5443 5441 5440 5440
5371 5376 5381 5387 5394 5400 5406 5410 5414 5418 5421 5424 5427 5429 5431 5433 5435 5438 5441 5442 5445 5447 5447 5447 5446 5444 5442 5442 5438 5436 5438 5442 5444 5444 5443 5442 5441 5441
5368 5373 5379 5384 5390 5396 5401 5405 5409 5412 5415 5418 5421 5424 5427 5431 5434 5437 5440 5442 5444 5445 5444 5443 5442 5441 5439 5437 5435 5436 5437 5438 5439 5442 5444 5448 5450 5448
5366 5371 5377 5382 5388 5393 5398 5402 5405 5407 5410 5412 5415 5419 5423 5427 5432 5435 5438 5440 5442 5442 5441 5441 5440 5438 5437 5437 5437 5436 5437 5438 5439 5439 5439 5445 5452 5451